Date String (YYYY-MM-DD hh:mm:ss) UTC,Instrument flags,absolute air pressure of the measurement (hPa),sample flow rate (lpm),inlet stack bypass flow (lpm),air temperature of the measurement (°C),ambient temperature measured by the external sensor (°C),aerosol sample conditioner tube jacket temperature (°C),OPC LED temperature (°C),internal box temperature (°C),relative humidity of the measurement (%),span deviation,mass concentration of particles derived from Lorenz-Mie calculation of OPC scattering (μg/m³),mass concentration of particles derived from Lorenz-Mie calculation of OPC scattering (μg/m³),mass concentration of particles derived from Lorenz-Mie calculation of OPC scattering (μg/m³)
DateTimeUTC,F1_M11,P_M11,Q1_M11,Q2_M11,T1_M11,T2_M11,T3_M11,T4_M11,T5_M11,U1_M11,ZSPAN_M11,X0_M11,X2_M11,X1_M11
2024-02-05 12:00:00,SystemResetWarning,0829.3,5.00,000.00,018.5,018.0,000.0,026.9,020.1,17.0,0000.0,0010.94,0004.27,0003.90
2024-02-05 12:01:00,SystemResetWarning,0829.4,4.99,000.00,018.5,017.9,000.0,026.9,020.0,17.0,0000.0,0009.69,0004.29,0003.94
2024-02-05 12:02:00,SystemResetWarning,0829.4,5.01,000.00,018.4,017.9,000.0,026.8,020.0,17.0,0000.0,0009.38,0004.28,0003.96
2024-02-05 12:03:00,SystemResetWarning,0829.3,5.00,000.00,018.4,017.8,000.0,026.9,020.0,17.1,0000.0,0009.36,0004.29,0003.98
2024-02-05 12:04:00,SystemResetWarning,0829.3,5.00,000.00,018.4,017.8,000.0,026.9,020.0,17.2,0000.0,0009.75,0004.27,0003.97
2024-02-05 12:05:00,SystemResetWarning,0829.3,5.00,000.00,018.4,017.7,000.0,026.9,020.0,17.3,0000.0,0010.33,0004.29,0003.97
2024-02-05 12:06:00,SystemResetWarning,0829.2,5.01,000.00,018.4,017.6,000.0,026.9,020.0,17.3,0000.3,0010.42,0004.36,0004.03
2024-02-05 12:07:00,SystemResetWarning,0829.3,5.01,000.00,018.3,017.5,000.0,026.9,020.0,17.4,0002.2,0010.34,0004.41,0004.07
2024-02-05 12:08:00,SystemResetWarning,0829.3,4.99,000.00,018.3,017.5,000.0,027.0,020.0,17.4,0001.8,0009.57,0004.40,0004.09
2024-02-05 12:09:00,SystemResetWarning,0829.3,4.99,000.00,018.3,017.4,000.0,027.0,020.0,17.4,0000.5,0009.55,0004.39,0004.09
2024-02-05 12:10:00,SystemResetWarning,0829.2,5.00,000.00,018.3,017.8,000.0,027.0,020.2,17.5,-000.1,0008.86,0004.35,0004.06
2024-02-05 12:11:00,SystemResetWarning,0829.3,5.02,000.00,018.5,018.5,000.0,027.1,020.7,17.3,-000.4,0008.84,0004.33,0004.03
2024-02-05 12:12:00,SystemResetWarning,0829.4,4.99,000.00,018.8,019.3,000.0,027.2,021.1,17.1,-000.3,0008.57,0004.30,0004.01
2024-02-05 12:13:00,SystemResetWarning,0829.4,4.98,000.00,018.9,019.2,000.0,027.1,021.0,17.0,0000.0,0008.47,0004.28,0003.99
2024-02-05 12:14:00,SystemResetWarning,0829.3,5.01,000.00,018.8,019.0,000.0,027.1,020.8,17.0,0000.0,0008.54,0004.28,0003.97
2024-02-05 12:15:00,SystemResetWarning,0829.2,5.01,000.00,018.8,018.9,000.0,027.0,020.6,17.0,0000.0,0008.30,0004.25,0003.95
2024-02-05 12:16:00,SystemResetWarning,0829.1,5.00,000.00,018.8,018.7,000.0,027.0,020.4,17.1,0000.0,0007.54,0004.24,0003.94
2024-02-05 12:17:00,SystemResetWarning,0829.1,4.99,000.00,018.7,018.5,000.0,027.0,020.3,17.1,0000.0,0007.50,0004.20,0003.89
2024-02-05 12:18:00,SystemResetWarning,0829.1,4.99,000.00,018.7,018.3,000.0,027.0,020.2,17.2,0000.0,0007.68,0004.15,0003.83
2024-02-05 12:19:00,SystemResetWarning,0829.1,5.00,000.00,018.6,018.2,000.0,026.9,020.1,17.2,0000.0,0007.71,0004.12,0003.78
2024-02-05 12:20:00,SystemResetWarning,0829.2,5.00,000.00,018.5,018.1,000.0,026.9,020.0,17.3,0000.0,0007.88,0004.09,0003.74
2024-02-05 12:21:00,SystemResetWarning,0829.2,5.02,000.00,018.5,018.0,000.0,026.9,020.0,17.3,0000.0,0008.12,0004.09,0003.71
2024-02-05 12:22:00,SystemResetWarning,0829.2,5.00,000.00,018.5,017.9,000.0,026.9,020.0,17.4,0000.0,0007.91,0004.10,0003.69
2024-02-05 12:23:00,SystemResetWarning,0829.2,5.00,000.00,018.5,017.8,000.0,026.9,020.0,17.4,0000.0,0007.75,0004.09,0003.67
2024-02-05 12:24:00,SystemResetWarning,0829.2,5.00,000.00,018.4,017.7,000.0,026.9,020.0,17.5,0000.0,0007.90,0004.10,0003.66
2024-02-05 12:25:00,SystemResetWarning,0829.1,5.00,000.00,018.4,017.7,000.0,026.9,020.0,17.5,0000.0,0008.43,0004.10,0003.68
2024-02-05 12:26:00,SystemResetWarning,0829.1,5.01,000.00,018.4,017.6,000.0,027.0,020.0,17.5,0000.0,0008.82,0004.15,0003.70
2024-02-05 12:27:00,SystemResetWarning,0829.1,5.00,000.00,018.4,017.6,000.0,027.0,020.0,17.6,0000.2,0009.11,0004.16,0003.70
2024-02-05 12:28:00,SystemResetWarning,0829.1,4.99,000.00,018.3,017.5,000.0,027.0,020.0,17.6,0000.7,0009.18,0004.16,0003.72
2024-02-05 12:29:00,SystemResetWarning,0829.0,5.00,000.00,018.3,017.5,000.0,027.0,020.0,17.6,0000.0,0008.99,0004.14,0003.71
2024-02-05 12:30:00,SystemResetWarning,0829.1,5.00,000.00,018.3,017.5,000.0,027.0,020.0,17.7,0000.0,0009.26,0004.14,0003.71
2024-02-05 12:31:00,SystemResetWarning,0829.1,5.00,000.00,018.3,017.7,000.0,027.0,020.1,17.6,0000.0,0009.25,0004.15,0003.73
2024-02-05 12:32:00,SystemResetWarning,0829.1,5.01,000.00,018.5,018.4,000.0,027.1,020.6,17.5,0000.0,0009.12,0004.16,0003.74
2024-02-05 12:33:00,SystemResetWarning,0829.1,4.99,000.00,018.7,019.0,000.0,027.2,020.9,17.2,0000.0,0009.53,0004.15,0003.75
2024-02-05 12:34:00,SystemResetWarning,0829.1,4.98,000.00,018.8,019.0,000.0,027.1,020.8,17.1,0000.0,0009.57,0004.18,0003.77
2024-02-05 12:35:00,SystemResetWarning,0829.1,5.00,000.00,018.7,018.8,000.0,027.0,020.6,17.1,0000.0,0009.78,0004.19,0003.78
2024-02-05 12:36:00,SystemResetWarning,0829.1,5.01,000.00,018.7,018.6,000.0,027.0,020.4,17.2,0000.0,0009.67,0004.17,0003.76
2024-02-05 12:37:00,SystemResetWarning,0829.1,5.00,000.00,018.7,018.5,000.0,027.0,020.3,17.2,0000.0,0009.60,0004.12,0003.75
2024-02-05 12:38:00,SystemResetWarning,0829.1,5.00,000.00,018.6,018.4,000.0,026.9,020.2,17.2,0000.0,0009.19,0004.08,0003.74
2024-02-05 12:39:00,SystemResetWarning,0829.1,4.99,000.00,018.6,018.2,000.0,026.9,020.2,17.2,0000.0,0009.08,0004.06,0003.72
2024-02-05 12:40:00,SystemResetWarning,0829.1,5.02,000.00,018.6,018.1,000.0,026.9,020.1,17.2,0000.0,0009.02,0004.06,0003.71
2024-02-05 12:41:00,SystemResetWarning,0829.1,5.00,000.00,018.5,018.0,000.0,026.9,020.1,17.3,0000.0,0008.71,0004.06,0003.71
2024-02-05 12:42:00,SystemResetWarning,0829.1,4.99,000.00,018.5,018.0,000.0,026.9,020.0,17.4,0000.0,0008.71,0004.07,0003.72
2024-02-05 12:43:00,SystemResetWarning,0829.1,5.00,000.00,018.5,017.9,000.0,026.9,020.0,17.4,0000.0,0008.90,0004.06,0003.72
2024-02-05 12:44:00,SystemResetWarning,0829.1,5.02,000.00,018.4,017.8,000.0,026.9,020.0,17.5,0000.0,0008.46,0004.05,0003.73
2024-02-05 12:45:00,SystemResetWarning,0829.1,5.00,000.00,018.4,017.7,000.0,027.0,020.0,17.5,0000.0,0008.44,0004.06,0003.75
2024-02-05 12:46:00,SystemResetWarning,0829.0,4.99,000.00,018.4,017.6,000.0,027.0,020.0,17.6,0000.0,0008.18,0004.06,0003.77
2024-02-05 12:47:00,SystemResetWarning,0829.0,5.00,000.00,018.4,017.5,000.0,027.0,020.0,17.7,0000.0,0008.01,0004.08,0003.80
2024-02-05 12:48:00,SystemResetWarning,0828.9,4.99,000.00,018.3,017.5,000.0,027.0,020.0,17.7,0000.0,0007.87,0004.09,0003.83
2024-02-05 12:49:00,SystemResetWarning,0828.9,5.01,000.00,018.3,017.5,000.0,027.0,020.0,17.7,0000.0,0007.93,0004.13,0003.86
2024-02-05 12:50:00,SystemResetWarning,0828.9,5.01,000.00,018.3,017.5,000.0,027.1,020.1,17.7,0000.0,0007.88,0004.15,0003.89
2024-02-05 12:51:00,SystemResetWarning,0828.9,5.00,000.00,018.4,018.2,000.0,027.1,020.5,17.7,0000.0,0007.96,0004.18,0003.92
2024-02-05 12:52:00,SystemResetWarning,0829.0,4.99,000.00,018.7,018.9,000.0,027.2,020.9,17.4,0000.0,0008.09,0004.21,0003.93
2024-02-05 12:53:00,SystemResetWarning,0829.0,4.99,000.00,018.7,018.9,000.0,027.1,020.8,17.3,0000.0,0008.05,0004.21,0003.95
2024-02-05 12:54:00,SystemResetWarning,0829.0,4.99,000.00,018.7,018.7,000.0,027.0,020.6,17.3,0000.0,0007.55,0004.23,0003.98
2024-02-05 12:55:00,SystemResetWarning,0829.0,5.00,000.00,018.7,018.6,000.0,027.0,020.4,17.4,0000.0,0007.59,0004.25,0004.00
2024-02-05 12:56:00,SystemResetWarning,0829.0,5.01,000.00,018.6,018.4,000.0,026.9,020.2,17.4,0000.0,0007.62,0004.26,0004.02
2024-02-05 12:57:00,SystemResetWarning,0828.9,5.01,000.00,018.6,018.2,000.0,026.9,020.1,17.5,0000.0,0007.67,0004.28,0004.04
2024-02-05 12:58:00,SystemResetWarning,0828.9,4.99,000.00,018.5,018.1,000.0,026.9,020.0,17.6,0000.0,0007.43,0004.33,0004.06
2024-02-05 12:59:00,SystemResetWarning,0829.0,4.99,000.00,018.5,017.9,000.0,027.0,020.0,17.6,0000.0,0007.01,0004.36,0004.08
